This is the latest recevied weather packets stored in our database for station/object N8VDS-10. If no packets are shown the sender has not sent any weather packets the latest 10 day(s).
| Time | Temp. | Humidity | Pressure | Rain* | Wind** | Luminosity | Snow |
|---|---|---|---|---|---|---|---|
| 1777654125 | 7.78° C | 57% | 1017.7 hPa | 0 mm | - | 185 W/m² | - |
| 1777653823 | 7.78° C | 56% | 1017.8 hPa | 0 mm | - | 124 W/m² | - |
| 1777653518 | 7.78° C | 55% | 1017.8 hPa | 0 mm | - | 157 W/m² | - |
| 1777653215 | 7.22° C | 54% | 1017.6 hPa | 0 mm | - | 224 W/m² | - |
| 1777652912 | 7.22° C | 56% | 1017.8 hPa | 0 mm | - | 233 W/m² | - |
| 1777652609 | 7.22° C | 58% | 1017.9 hPa | 0 mm | - | 201 W/m² | - |
| 1777652306 | 7.22° C | 56% | 1017.7 hPa | 0 mm | - | 132 W/m² | - |
| 1777652003 | 7.22° C | 55% | 1017.7 hPa | 0 mm | - | 100 W/m² | - |
| 1777651700 | 7.22° C | 61% | 1017.6 hPa | 0 mm | - | 49 W/m² | - |
| 1777651396 | 6.67° C | 61% | 1017.7 hPa | 0 mm | - | 75 W/m² | - |
| 1777651094 | 7.22° C | 61% | 1017.7 hPa | 0 mm | - | 110 W/m² | - |
| 1777650790 | 7.22° C | 60% | 1017.6 hPa | 0 mm | - | 230 W/m² | - |
| 1777650487 | 7.22° C | 59% | 1017.8 hPa | 0 mm | - | 170 W/m² | - |
| 1777650184 | 7.78° C | 56% | 1017.8 hPa | 0 mm | - | 195 W/m² | - |
| 1777649882 | 7.78° C | 54% | 1017.6 hPa | 0 mm | - | 163 W/m² | - |
| 1777649579 | 7.78° C | 55% | 1017.7 hPa | 0 mm | - | 264 W/m² | - |
| 1777649275 | 7.22° C | 58% | 1017.7 hPa | 0 mm | - | 271 W/m² | - |
| 1777648972 | 7.78° C | 56% | 1017.5 hPa | 0 mm | - | 365 W/m² | - |
| 1777648670 | 7.22° C | 57% | 1017.8 hPa | 0 mm | - | 306 W/m² | - |
| 1777648365 | 7.78° C | 58% | 1017.6 hPa | 0 mm | - | 335 W/m² | - |
| 1777648062 | 7.78° C | 57% | 1017.6 hPa | 0 mm | - | 341 W/m² | - |
| 1777647758 | 7.78° C | 57% | 1017.6 hPa | 0 mm | - | 366 W/m² | - |
| 1777647455 | 7.78° C | 60% | 1017.8 hPa | 0 mm | - | 343 W/m² | - |
| 1777647153 | 7.78° C | 62% | 1017.8 hPa | 0 mm | - | 344 W/m² | - |
| 1777646848 | 7.78° C | 62% | 1017.8 hPa | 0 mm | - | 319 W/m² | - |
* Rain latest hour (hover to see other rain measurements)
** Current wind speed in m/s (hover to see current wind gust speed)